Date String (YYYY-MM-DD hh:mm:ss) UTC,Instrument flags,Ambient pressure (hPa),Sample flow (lpm),Bypass flow (lpm),Sample temperature (°C),Ambient temperature (°C),ASC tube jacket temperature (°C),LED temperature (°C),Box temperature (°C),Sample RH (%),Span deviation,Mass concentration (μg/m³),Mass concentration (μg/m³),Mass concentration (μg/m³)
DateTimeUTC,F1_M11,P_M11,Q1_M11,Q2_M11,T1_M11,T2_M11,T3_M11,T4_M11,T5_M11,U1_M11,ZSPAN_M11,X2_M11,X0_M11,X1_M11
2022-10-22 14:00:00,,0813.2,5.01,0.00,28.6,27.2,00.0,37.4,30.5,08.6,0000.0,0005.65,0009.13,0005.11
2022-10-22 14:01:00,,0813.2,4.98,0.00,28.6,27.2,00.0,37.4,30.5,08.6,0000.0,0005.63,0009.87,0005.11
2022-10-22 14:02:00,,0813.2,5.01,0.00,28.6,27.1,00.0,37.4,30.5,08.6,0000.0,0005.63,0010.01,0005.12
2022-10-22 14:03:00,,0813.2,4.99,0.00,28.6,27.1,00.0,37.4,30.5,08.7,0000.0,0005.62,0009.99,0005.13
2022-10-22 14:04:00,,0813.2,5.01,0.00,28.6,27.1,00.0,37.4,30.5,08.9,0000.0,0005.65,0010.07,0005.14
2022-10-22 14:05:00,,0813.2,5.00,0.00,28.6,27.1,00.0,37.4,30.5,08.8,0000.0,0005.70,0010.31,0005.17
2022-10-22 14:06:00,,0813.2,4.99,0.00,28.6,27.1,00.0,37.4,30.5,08.6,0000.0,0005.71,0010.76,0005.19
2022-10-22 14:07:00,,0813.2,5.02,0.00,28.6,27.1,00.0,37.4,30.5,08.5,0000.0,0005.72,0010.06,0005.21
2022-10-22 14:08:00,,0813.3,4.99,0.00,28.6,27.1,00.0,37.4,30.5,08.6,0000.0,0005.71,0009.99,0005.24
2022-10-22 14:09:00,,0813.4,4.99,0.00,28.6,27.1,00.0,37.4,30.5,08.6,0000.0,0005.71,0010.06,0005.27
2022-10-22 14:10:00,,0813.4,5.01,0.00,28.6,27.1,00.0,37.4,30.5,08.6,0000.0,0005.74,0010.08,0005.30
2022-10-22 14:11:00,,0813.3,5.00,0.00,28.6,27.2,00.0,37.5,30.5,08.6,0000.0,0005.80,0010.20,0005.34
2022-10-22 14:12:00,,0813.4,4.98,0.00,28.6,27.2,00.0,37.5,30.5,08.5,0000.0,0005.89,0009.64,0005.37
2022-10-22 14:13:00,,0813.4,5.02,0.00,28.6,27.2,00.0,37.5,30.5,08.5,0000.0,0005.92,0009.45,0005.41
2022-10-22 14:14:00,,0813.4,4.99,0.00,28.6,27.2,00.0,37.5,30.5,08.5,0000.0,0005.95,0009.47,0005.45
2022-10-22 14:15:00,,0813.3,5.01,0.00,28.7,27.3,00.0,37.5,30.6,08.5,0000.0,0006.01,0009.54,0005.49
2022-10-22 14:16:00,,0813.4,5.00,0.00,28.7,27.3,00.0,37.5,30.6,08.5,0000.0,0006.03,0009.44,0005.51
2022-10-22 14:17:00,,0813.4,4.99,0.00,28.7,27.3,00.0,37.5,30.6,08.4,0000.0,0006.05,0009.08,0005.52
2022-10-22 14:18:00,,0813.4,5.00,0.00,28.7,27.3,00.0,37.5,30.6,08.3,0000.0,0006.03,0009.39,0005.50
2022-10-22 14:19:00,,0813.3,5.00,0.00,28.7,27.3,00.0,37.5,30.6,08.2,0000.0,0005.94,0009.78,0005.44
2022-10-22 14:20:00,,0813.3,4.98,0.00,28.7,27.3,00.0,37.5,30.6,08.3,0000.0,0005.87,0009.93,0005.39
2022-10-22 14:21:00,,0813.3,5.02,0.00,28.7,27.3,00.0,37.5,30.6,08.3,0000.0,0005.84,0010.28,0005.37
2022-10-22 14:22:00,,0813.4,4.99,0.00,28.7,27.3,00.0,37.5,30.6,08.3,0000.0,0005.75,0010.14,0005.33
2022-10-22 14:23:00,,0813.3,5.00,0.00,28.7,27.3,00.0,37.5,30.6,08.3,0000.0,0005.68,0009.98,0005.31
2022-10-22 14:24:00,,0813.5,5.01,0.00,28.7,27.3,00.0,37.5,30.6,08.4,0000.0,0005.65,0009.99,0005.28
2022-10-22 14:25:00,,0813.3,4.99,0.00,28.8,27.4,00.0,37.5,30.6,08.4,0000.0,0005.63,0010.02,0005.24
2022-10-22 14:26:00,,0813.3,5.01,0.00,28.8,27.4,00.0,37.6,30.7,08.3,0000.0,0005.58,0009.99,0005.20
2022-10-22 14:27:00,,0813.3,5.01,0.00,28.8,27.5,00.0,37.6,30.7,08.4,0000.0,0005.54,0009.90,0005.18
2022-10-22 14:28:00,,0813.3,4.99,0.00,28.8,27.5,00.0,37.6,30.7,08.5,0000.0,0005.55,0009.95,0005.18
2022-10-22 14:29:00,,0813.4,5.02,0.00,28.8,27.5,00.0,37.6,30.7,08.5,0000.0,0005.56,0009.52,0005.18
2022-10-22 14:30:00,,0813.4,4.99,0.00,28.8,27.5,00.0,37.6,30.8,08.5,0000.0,0005.60,0009.05,0005.21
2022-10-22 14:31:00,,0813.4,4.99,0.00,28.8,27.5,00.0,37.6,30.8,08.5,0000.0,0005.64,0008.90,0005.23
2022-10-22 14:32:00,,0813.4,5.01,0.00,28.9,27.5,00.0,37.6,30.8,08.4,0000.0,0005.67,0008.63,0005.25
2022-10-22 14:33:00,,0813.5,5.01,0.00,28.9,27.5,00.0,37.6,30.8,08.3,0000.0,0005.69,0008.94,0005.28
2022-10-22 14:34:00,,0813.5,4.99,0.00,28.9,27.6,00.0,37.7,30.8,08.3,0000.0,0005.71,0010.07,0005.29
2022-10-22 14:35:00,,0813.5,5.01,0.00,28.9,27.6,00.0,37.7,30.8,08.1,0000.0,0005.69,0010.56,0005.28
2022-10-22 14:36:00,,0813.5,5.01,0.00,28.9,27.6,00.0,37.7,30.8,08.2,0000.0,0005.65,0010.43,0005.25
2022-10-22 14:37:00,,0813.4,4.99,0.00,28.9,27.6,00.0,37.7,30.8,08.2,0000.0,0005.65,0010.46,0005.23
2022-10-22 14:38:00,,0813.4,5.02,0.00,28.9,27.6,00.0,37.7,30.8,08.1,0000.0,0005.65,0010.50,0005.21
2022-10-22 14:39:00,,0813.4,5.00,0.00,29.0,27.7,00.0,37.7,30.9,08.2,0000.0,0005.62,0011.18,0005.19
2022-10-22 14:40:00,,0813.4,5.00,0.00,29.0,27.7,00.0,37.7,30.9,08.3,0000.0,0005.58,0011.41,0005.17
2022-10-22 14:41:00,,0813.4,4.98,0.00,29.0,27.7,00.0,37.8,30.9,08.2,0000.0,0005.56,0011.81,0005.16
2022-10-22 14:42:00,,0813.4,5.02,0.00,29.0,27.7,00.0,37.8,30.9,08.1,0000.0,0005.52,0011.66,0005.14
2022-10-22 14:43:00,,0813.3,4.98,0.00,29.0,27.8,00.0,37.8,30.9,08.1,0000.0,0005.50,0011.58,0005.11
2022-10-22 14:44:00,,0813.4,5.00,0.00,29.0,27.8,00.0,37.8,30.9,08.1,0000.0,0005.48,0011.26,0005.09
2022-10-22 14:45:00,,0813.4,5.02,0.00,29.0,27.8,00.0,37.8,30.9,08.2,0000.0,0005.49,0010.17,0005.08
2022-10-22 14:46:00,,0813.4,4.99,0.00,29.1,27.8,00.0,37.8,30.9,08.0,0000.0,0005.47,0009.62,0005.06
2022-10-22 14:47:00,,0813.4,5.02,0.00,29.1,27.9,00.0,37.8,31.0,08.1,0000.0,0005.47,0009.63,0005.07
2022-10-22 14:48:00,,0813.4,4.99,0.00,29.1,27.9,00.0,37.9,31.0,08.1,0000.0,0005.42,0009.55,0005.06
2022-10-22 14:49:00,,0813.5,5.00,0.00,29.1,27.9,00.0,37.9,31.0,08.1,0000.0,0005.39,0009.56,0005.04
2022-10-22 14:50:00,,0813.5,5.01,0.00,29.1,27.9,00.0,37.9,31.1,08.2,0000.0,0005.35,0008.80,0005.02
2022-10-22 14:51:00,,0813.5,4.99,0.00,29.2,27.9,00.0,37.9,31.1,08.2,0000.0,0005.35,0008.52,0005.02
2022-10-22 14:52:00,,0813.5,5.02,0.00,29.2,27.9,00.0,37.9,31.1,08.2,0000.0,0005.38,0008.21,0005.03
2022-10-22 14:53:00,,0813.5,4.99,0.00,29.2,28.0,00.0,37.9,31.0,08.2,0000.0,0005.41,0008.36,0005.03
2022-10-22 14:54:00,,0813.6,5.00,0.00,29.2,28.0,00.0,38.0,31.1,08.2,0000.0,0005.37,0008.29,0005.02
2022-10-22 14:55:00,,0813.5,4.99,0.00,29.2,28.0,00.0,38.0,31.1,08.2,0000.0,0005.36,0009.40,0005.00
2022-10-22 14:56:00,,0813.5,5.01,0.00,29.2,28.0,00.0,38.0,31.1,08.2,0000.0,0005.34,0009.43,0004.99
2022-10-22 14:57:00,,0813.5,4.98,0.00,29.3,28.1,00.0,38.0,31.1,08.4,0000.0,0005.38,0009.85,0005.00
2022-10-22 14:58:00,,0813.4,5.02,0.00,29.3,28.1,00.0,38.0,31.2,08.3,0000.0,0005.42,0010.32,0005.01
2022-10-22 14:59:00,,0813.4,4.98,0.00,29.3,28.1,00.0,38.0,31.2,08.2,0000.0,0005.46,0010.74,0005.01
